| time (UTC) | temp F | wind direction | speed MPH | gust MPH | rain 1hr in | rain 24hr in | rain mn in | humidity % | barometer mb |
| 20260502150710 | 46 | 269 | 26.0 | 44.0 | 0.00 | 0.00 | 0.00 | 38 | 994.5 |
| 20260502130710 | 50 | 261 | 23.0 | 35.0 | 0.00 | 0.00 | 0.00 | 37 | 992.7 |
| 20260502122709 | 46 | 238 | 15.0 | 22.0 | 0.00 | 0.00 | 0.00 | 74 | 993.0 |
| 20260502120710 | 41 | 254 | 19.0 | 34.0 | 0.00 | 0.00 | 0.00 | 82 | 993.6 |
| 20260502114710 | 47 | 246 | 22.0 | 37.0 | 0.00 | 0.00 | 0.00 | 55 | 992.8 |
| 20260502112709 | 53 | 238 | 23.0 | 37.0 | 0.00 | 0.00 | 0.00 | 46 | 992.4 |
| 20260502110709 | 54 | 233 | 24.0 | 32.0 | 0.00 | 0.00 | 0.00 | 44 | 992.3 |
| 20260502104709 | 53 | 231 | 21.0 | 33.0 | 0.00 | 0.00 | 0.00 | 46 | 992.6 |
| 20260502102709 | 51 | 221 | 20.0 | 28.0 | 0.00 | 0.00 | 0.00 | 48 | 992.8 |
| 20260502100709 | 52 | 214 | 17.0 | 27.0 | 0.00 | 0.00 | 0.00 | 48 | 993.1 |
| 20260502090709 | 50 | 221 | 20.0 | 27.0 | 0.00 | 0.00 | 0.00 | 51 | 993.8 |
| 20260502070708 | 46 | 201 | 9.0 | 15.0 | 0.00 | 0.00 | 0.00 | 59 | 995.8 |
| 20260502064708 | 46 | 218 | 12.0 | 20.0 | 0.00 | 0.00 | 0.00 | 61 | 996.2 |
| 20260502062708 | 46 | 196 | 9.0 | 13.0 | 0.00 | 0.00 | 0.00 | 63 | 996.5 |
| 20260502060708 | 44 | 202 | 9.0 | 14.0 | 0.00 | 0.00 | 0.00 | 66 | 996.9 |
| 20260502054708 | 44 | 209 | 12.0 | 17.0 | 0.00 | 0.00 | 0.00 | 67 | 997.3 |
| 20260502052708 | 44 | 213 | 13.0 | 17.0 | 0.00 | 0.00 | 0.00 | 68 | 997.8 |
| 20260502050708 | 43 | 211 | 12.0 | 17.0 | 0.00 | 0.00 | 0.00 | 69 | 998.1 |
| 20260502044708 | 43 | 220 | 11.0 | 16.0 | 0.00 | 0.00 | 0.00 | 69 | 998.4 |
| 20260502042708 | 43 | 219 | 8.0 | 12.0 | 0.00 | 0.00 | 0.00 | 69 | 998.5 |
| 20260502040708 | 42 | 212 | 10.0 | 14.0 | 0.00 | 0.00 | 0.00 | 71 | 998.7 |
| 20260502034708 | 39 | 202 | 6.0 | 9.0 | 0.00 | 0.00 | 0.00 | 84 | 999.1 |
| 20260502032707 | 38 | 229 | 3.0 | 8.0 | 0.00 | 0.00 | 0.00 | 86 | 999.6 |
| 20260502030708 | 37 | 238 | 4.0 | 5.0 | 0.00 | 0.00 | 0.00 | 84 | 1000.1 |
| 20260502024707 | 36 | 185 | 5.0 | 7.0 | 0.00 | 0.00 | 0.00 | 90 | 1000.7 |
| 20260502022708 | 37 | 160 | 6.0 | 8.0 | 0.00 | 0.00 | 0.00 | 89 | 1001.0 |
| 20260502020708 | 38 | 164 | 6.0 | 7.0 | 0.00 | 0.00 | 0.00 | 84 | 1001.5 |
| 20260502014707 | 38 | 187 | 1.0 | 2.0 | 0.00 | 0.00 | 0.00 | 85 | 1001.9 |
| 20260502012708 | 37 | 94 | 1.0 | 2.0 | 0.00 | 0.00 | 0.00 | 85 | 1002.1 |
| 20260502010708 | 38 | 222 | 2.0 | 3.0 | 0.00 | 0.00 | 0.00 | 81 | 1002.4 |
| 20260502004708 | 38 | 153 | 1.0 | 2.0 | 0.00 | 0.00 | 0.00 | 79 | 1002.5 |
| 20260502002707 | 37 | 294 | 1.0 | 2.0 | 0.00 | 0.00 | 0.00 | 80 | 1002.5 |
| 20260502000707 | 40 | 161 | 4.0 | 7.0 | 0.00 | 0.00 | 0.00 | 73 | 1002.7 |
| 20260501234707 | 39 | 221 | 7.0 | 9.0 | 0.00 | 0.00 | 0.00 | 77 | 1003.2 |
| 20260501232707 | 39 | 230 | 6.0 | 8.0 | 0.00 | 0.00 | 0.00 | 78 | 1003.5 |
| 20260501230707 | 38 | 235 | 3.0 | 4.0 | 0.00 | 0.00 | 0.00 | 80 | 1003.7 |
| 20260501224707 | 39 | 211 | 5.0 | 7.0 | 0.00 | 0.00 | 0.00 | 77 | 1003.5 |
| 20260501222707 | 40 | 235 | 9.0 | 10.0 | 0.00 | 0.00 | 0.00 | 74 | 1003.9 |
| 20260501220707 | 40 | 217 | 5.0 | 6.0 | 0.00 | 0.00 | 0.00 | 72 | 1003.9 |
| 20260501214707 | 42 | 289 | 4.0 | 5.0 | 0.00 | 0.00 | 0.00 | 70 | 1003.7 |
| 20260501212706 | 42 | 240 | 8.0 | 11.0 | 0.00 | 0.00 | 0.00 | 69 | 1003.8 |
| 20260501210707 | 43 | 231 | 7.0 | 9.0 | 0.00 | 0.00 | 0.00 | 68 | 1004.2 |
| 20260501204706 | 44 | 233 | 5.0 | 7.0 | 0.00 | 0.00 | 0.00 | 65 | 1004.3 |
| 20260501202706 | 45 | 252 | 7.0 | 9.0 | 0.00 | 0.00 | 0.00 | 62 | 1004.3 |
| 20260501200706 | 46 | 247 | 8.0 | 11.0 | 0.00 | 0.00 | 0.00 | 61 | 1004.4 |
| 20260501194706 | 46 | 246 | 9.0 | 11.0 | 0.00 | 0.00 | 0.00 | 61 | 1004.4 |
| 20260501192706 | 47 | 259 | 7.0 | 11.0 | 0.00 | 0.00 | 0.00 | 58 | 1004.4 |
| 20260501190706 | 47 | 240 | 7.0 | 9.0 | 0.00 | 0.00 | 0.00 | 58 | 1004.5 |
| 20260501184706 | 47 | 234 | 7.0 | 9.0 | 0.00 | 0.00 | 0.00 | 57 | 1004.5 |
| 20260501182706 | 48 | 272 | 7.0 | 10.0 | 0.00 | 0.00 | 0.00 | 54 | 1004.4 |
| 20260501180706 | 49 | 281 | 9.0 | 14.0 | 0.00 | 0.00 | 0.00 | 53 | 1004.4 |
| 20260501174705 | 50 | 273 | 10.0 | 16.0 | 0.00 | 0.00 | 0.00 | 51 | 1004.4 |
| 20260501172706 | 51 | 273 | 12.0 | 17.0 | 0.00 | 0.00 | 0.00 | 50 | 1004.5 |
| 20260501170706 | 51 | 270 | 11.0 | 17.0 | 0.00 | 0.00 | 0.00 | 48 | 1004.4 |
| 20260501164705 | 52 | 258 | 15.0 | 23.0 | 0.00 | 0.00 | 0.00 | 46 | 1004.2 |
| 20260501162705 | 53 | 252 | 12.0 | 17.0 | 0.00 | 0.00 | 0.00 | 45 | 1004.1 |
| 20260501160705 | 53 | 250 | 16.0 | 23.0 | 0.00 | 0.00 | 0.00 | 44 | 1004.2 |
| 20260501154705 | 54 | 236 | 11.0 | 16.0 | 0.00 | 0.00 | 0.00 | 44 | 1004.1 |
| 20260501152705 | 54 | 245 | 11.0 | 15.0 | 0.00 | 0.00 | 0.00 | 44 | 1004.1 |